Location: Peebles
(55.6412°N, 3.1714°W)
Time: 01:06:10
(UTC+01:00)

deb r/b Ablestar - Pass Details

Date: 03 July 2022
Orbit: 859 x 1154 km, 67.2° (Epoch: 13 August)

Event Time Altitude Azimuth Distance (km) Brightness Sun altitude
Rises 03:02:14 0° 318° (NW) 4,020 ? -8.3°
Reaches altitude 10° 03:05:14 10° 309° (NW) 3,064 ? -8.1°
Maximum altitude 03:11:30 32° 250° (WSW) 1,868 ? -7.7°
Drops below altitude 10° 03:17:40 10° 191° (S) 3,001 ? -7.3°
Enters shadow 03:18:49 - 187° (S) 3,356 ? -7.2°
